W7KKE-3 Weather Reports


time (UTC)temp
C
wind
direction
speed
KPH
gust
KPH
rain 1hr
cm
rain 24hr
cm
rain mn
cm
humidity
%
barometer
mb
20260901133325 15 57 0.0 8.0 0.03 0.03 0.03 89 1007.4
20260901132826 15 131 0.0 8.0 0.03 0.03 0.03 89 1007.3
20260901132325 15 100 3.2 6.4 0.03 0.03 0.03 88 1007.3
20260901131825 15 169 1.6 4.8 0.00 0.03 0.03 88 1007.3
20260901131326 15 208 1.6 6.4 0.00 0.03 0.03 88 1007.2
20260901130825 15 187 0.0 6.4 0.00 0.00 0.00 88 1007.2
20260901130325 15 200 0.0 6.4 0.00 0.00 0.00 88 1007.3
20260901125825 15 135 1.6 4.8 0.00 0.00 0.00 88 1007.4
20260901125325 15 163 0.0 3.2 0.00 0.00 0.00 88 1007.4
20260901124825 15 194 1.6 1.6 0.00 0.00 0.00 88 1007.3
20260901124326 15 109 0.0 1.6 0.00 0.00 0.00 88 1007.3
20260901123825 15 0 0.0 6.4 0.00 0.00 0.00 88 1007.3
20260901123325 15 257 0.0 6.4 0.00 0.00 0.00 88 1007.3
20260901122825 15 232 1.6 6.4 0.00 0.00 0.00 88 1007.2
20260901122325 15 78 0.0 1.6 0.00 0.00 0.00 88 1007.2
20260901121825 15 57 0.0 6.4 0.00 0.00 0.00 88 1007.2
20260901121326 15 155 0.0 6.4 0.00 0.00 0.00 88 1007.4
20260901120825 15 156 1.6 6.4 0.00 0.00 0.00 88 1007.4
20260901120325 15 196 1.6 12.9 0.00 0.00 0.00 88 1007.3
20260901115826 15 177 6.4 12.9 0.00 0.00 0.00 88 1007.4
20260901115325 15 222 0.0 12.9 0.00 0.00 0.00 88 1007.4
20260901114825 15 207 4.8 12.9 0.00 0.00 0.00 88 1007.4
20260901114326 15 201 3.2 16.1 0.00 0.00 0.00 88 1007.4
20260901113825 15 194 3.2 16.1 0.00 0.00 0.00 88 1007.4
20260901113326 15 194 4.8 16.1 0.00 0.00 0.00 88 1007.5
20260901112826 15 175 9.7 11.3 0.00 0.00 0.00 87 1007.5
20260901111825 15 211 8.0 8.0 0.00 0.00 0.00 88 1007.5
20260901111326 15 197 0.0 6.4 0.00 0.00 0.00 87 1007.5
20260901110825 15 247 0.0 1.6 0.00 0.00 0.00 87 1007.5
20260901110325 15 0 0.0 0.0 0.00 0.00 0.00 87 1007.5
20260901105825 15 0 0.0 0.0 0.00 0.00 0.00 87 1007.5
20260901105325 15 0 0.0 0.0 0.00 0.00 0.00 87 1007.5
20260901104826 15 0 0.0 0.0 0.00 0.00 0.00 87 1007.5
20260901104326 15 0 0.0 0.0 0.00 0.00 0.00 87 1007.5
20260901103825 15 0 0.0 0.0 0.00 0.00 0.00 87 1007.5
20260901103325 15 0 0.0 3.2 0.00 0.00 0.00 87 1007.5
20260901102826 15 0 0.0 3.2 0.00 0.00 0.00 87 1007.4
20260901102325 15 210 0.0 3.2 0.00 0.00 0.00 87 1007.4
20260901101326 15 0 0.0 0.0 0.00 0.00 0.00 87 1007.4
20260901100825 15 0 0.0 4.8 0.00 0.00 0.00 87 1007.4
20260901100325 15 197 0.0 4.8 0.00 0.00 0.00 87 1007.4
20260901095826 15 201 0.0 4.8 0.00 0.00 0.00 87 1007.4
20260901095325 15 126 0.0 4.8 0.00 0.00 0.00 87 1007.4
20260901094825 15 201 0.0 11.3 0.00 0.00 0.00 87 1007.5
20260901094326 15 200 0.0 11.3 0.00 0.00 0.00 87 1007.4
20260901093825 15 179 4.8 11.3 0.00 0.00 0.00 87 1007.5
20260901093325 15 210 0.0 12.9 0.00 0.00 0.00 87 1007.4
20260901092826 15 210 3.2 12.9 0.00 0.00 0.00 87 1007.4
20260901092325 15 210 1.6 12.9 0.00 0.00 0.00 87 1007.4
20260901091825 15 217 3.2 14.5 0.00 0.00 0.00 87 1007.5
20260901091326 15 205 6.4 14.5 0.00 0.00 0.00 87 1007.5
20260901090825 15 198 6.4 14.5 0.00 0.00 0.00 87 1007.5
20260901090325 15 201 9.7 9.7 0.00 0.00 0.00 87 1007.6
20260901085826 15 218 1.6 9.7 0.00 0.00 0.00 87 1007.6
20260901085325 15 208 6.4 6.4 0.00 0.00 0.00 87 1007.5
20260901084825 15 191 1.6 6.4 0.00 0.00 0.00 87 1007.5
20260901084326 15 201 1.6 6.4 0.00 0.00 0.00 87 1007.5
20260901083825 15 210 3.2 6.4 0.00 0.00 0.00 87 1007.5
20260901083325 15 175 1.6 11.3 0.00 0.00 0.00 87 1007.6
20260901082826 15 161 1.6 11.3 0.00 0.00 0.00 87 1007.6
20260901082325 15 201 1.6 11.3 0.00 0.00 0.00 86 1007.6
20260901081825 15 187 8.0 9.7 0.00 0.00 0.00 86 1007.7
20260901081326 15 196 3.2 14.5 0.00 0.00 0.00 86 1007.6
20260901080825 15 187 3.2 14.5 0.00 0.00 0.00 86 1007.6
20260901080325 15 187 6.4 14.5 0.00 0.00 0.00 86 1007.6
20260901075826 15 215 8.0 12.9 0.00 0.00 0.00 86 1007.6
20260901075325 15 189 3.2 12.9 0.00 0.00 0.00 86 1007.6
20260901074825 15 194 4.8 12.9 0.00 0.00 0.00 86 1007.7
20260901074326 15 189 6.4 16.1 0.00 0.00 0.00 86 1007.6
20260901073825 16 211 4.8 16.1 0.00 0.00 0.00 86 1007.5
20260901073325 16 196 4.8 16.1 0.00 0.00 0.00 86 1007.5
20260901072826 16 196 6.4 12.9 0.00 0.00 0.00 86 1007.5
20260901072325 16 205 9.7 17.7 0.00 0.00 0.00 86 1007.5
20260901071825 16 211 8.0 17.7 0.00 0.00 0.00 86 1007.5
20260901071326 15 189 8.0 17.7 0.00 0.00 0.00 86 1007.5
20260901070825 15 200 9.7 17.7 0.00 0.00 0.00 86 1007.5
20260901070325 15 187 6.4 17.7 0.00 0.00 0.00 86 1007.5
20260901065826 15 163 9.7 17.7 0.00 0.00 0.00 86 1007.5
20260901065325 15 180 6.4 16.1 0.00 0.00 0.00 86 1007.4
20260901064825 15 193 4.8 16.1 0.00 0.00 0.00 86 1007.4
20260901064326 15 186 8.0 16.1 0.00 0.00 0.00 86 1007.4
20260901063825 15 212 11.3 16.1 0.00 0.00 0.00 86 1007.4
20260901063325 16 201 6.4 12.9 0.00 0.00 0.00 86 1007.4
20260901062825 16 193 6.4 12.9 0.00 0.00 0.00 86 1007.4
20260901062325 16 177 6.4 12.9 0.00 0.00 0.00 85 1007.5
20260901061825 16 204 6.4 14.5 0.00 0.00 0.00 85 1007.5
20260901061326 15 204 3.2 14.5 0.00 0.00 0.00 85 1007.5
20260901060825 16 201 3.2 14.5 0.00 0.00 0.00 85 1007.6
20260901060325 16 205 3.2 14.5 0.00 0.00 0.00 85 1007.5
20260901055325 16 201 6.4 14.5 0.00 0.00 0.00 85 1007.5
20260901054825 16 189 8.0 12.9 0.00 0.00 0.00 85 1007.4
20260901054326 16 225 4.8 12.9 0.00 0.00 0.00 85 1007.4
20260901053826 16 221 4.8 11.3 0.00 0.00 0.00 84 1007.4
20260901053325 16 198 0.0 6.4 0.00 0.00 0.00 84 1007.5
20260901052826 16 225 0.0 6.4 0.00 0.00 0.00 84 1007.4
20260901052325 16 242 0.0 3.2 0.00 0.00 0.00 84 1007.5
20260901051825 16 295 0.0 3.2 0.00 0.00 0.00 84 1007.4
20260901051326 16 0 0.0 0.0 0.00 0.00 0.00 84 1007.4
20260901050825 16 0 0.0 0.0 0.00 0.00 0.00 84 1007.4
20260901050325 16 0 0.0 0.0 0.00 0.00 0.00 84 1007.4
20260901045826 16 0 0.0 0.0 0.00 0.00 0.00 84 1007.3
20260901045325 16 0 0.0 0.0 0.00 0.00 0.00 84 1007.3
20260901044825 16 0 0.0 0.0 0.00 0.00 0.00 84 1007.3
20260901044326 16 0 0.0 0.0 0.00 0.00 0.00 84 1007.3
20260901043825 16 0 0.0 0.0 0.00 0.00 0.00 84 1007.4
20260901043325 16 0 0.0 0.0 0.00 0.00 0.00 84 1007.4
20260901042825 16 0 0.0 3.2 0.00 0.00 0.00 84 1007.4
20260901042325 16 247 0.0 3.2 0.00 0.00 0.00 84 1007.4
20260901041825 16 235 0.0 3.2 0.00 0.00 0.00 83 1007.4
20260901041326 16 0 0.0 6.4 0.00 0.00 0.00 83 1007.4
20260901040825 16 257 0.0 6.4 0.00 0.00 0.00 83 1007.4
20260901040325 16 271 0.0 6.4 0.00 0.00 0.00 83 1007.3
20260901035826 16 0 0.0 0.0 0.00 0.00 0.00 83 1007.3
20260901035325 16 0 0.0 0.0 0.00 0.00 0.00 83 1007.2
20260901034825 16 0 0.0 0.0 0.00 0.00 0.00 83 1007.1
20260901034326 16 0 0.0 4.8 0.00 0.00 0.00 83 1007.1
20260901033825 16 0 0.0 4.8 0.00 0.00 0.00 83 1007.1
20260901033325 16 256 0.0 4.8 0.00 0.00 0.00 83 1007.0
20260901032826 16 329 4.8 9.7 0.00 0.00 0.00 83 1006.9
20260901032325 16 313 0.0 9.7 0.00 0.00 0.00 83 1006.8
20260901031825 16 7 1.6 9.7 0.00 0.00 0.00 83 1006.8
20260901031326 16 347 4.8 4.8 0.00 0.00 0.00 83 1006.7
20260901030826 17 0 0.0 0.0 0.00 0.00 0.00 83 1006.7
20260901030325 16 336 0.0 6.4 0.00 0.00 0.00 83 1006.7
20260901025826 16 317 0.0 6.4 0.00 0.00 0.00 83 1006.8
20260901025325 16 315 1.6 6.4 0.00 0.00 0.00 83 1006.8
20260901024825 16 7 3.2 4.8 0.00 0.00 0.00 83 1006.8
20260901024326 16 324 1.6 6.4 0.00 0.00 0.00 83 1006.8
20260901023825 16 344 1.6 6.4 0.00 0.00 0.00 83 1006.7
20260901023325 16 317 1.6 6.4 0.00 0.00 0.00 83 1006.6
20260901022826 16 327 3.2 14.5 0.00 0.00 0.00 83 1006.7
20260901022325 16 341 6.4 14.5 0.00 0.00 0.00 83 1006.6
20260901021828 16 330 9.7 14.5 0.00 0.00 0.00 83 1006.7
20260901021326 16 320 9.7 19.3 0.00 0.00 0.00 83 1006.6
20260901020825 16 333 11.3 19.3 0.00 0.00 0.00 83 1006.5
20260901020325 16 330 9.7 19.3 0.00 0.00 0.00 83 1006.6
20260901015826 16 315 12.9 17.7 0.00 0.00 0.00 82 1006.5
20260901015326 16 323 11.3 17.7 0.00 0.00 0.00 82 1006.4
20260901014825 17 313 12.9 20.9 0.00 0.00 0.00 82 1006.4
20260901014326 17 312 14.5 20.9 0.00 0.00 0.00 82 1006.2
20260901013825 17 324 9.7 20.9 0.00 0.00 0.00 82 1006.2
20260901013325 17 331 14.5 22.5 0.00 0.00 0.00 81 1006.2
20260901012826 17 326 12.9 22.5 0.00 0.00 0.00 81 1006.3
20260901012325 17 336 14.5 22.5 0.00 0.00 0.00 81 1006.2
20260901011825 17 326 9.7 16.1 0.00 0.00 0.00 81 1006.2
20260901011326 17 330 11.3 16.1 0.00 0.00 0.00 81 1006.3
20260901010918 17 302 6.4 14.5 0.00 0.00 0.00 81 1006.4
20260901010825 17 302 6.4 14.5 0.00 0.00 0.00 81 1006.4
20260901010325 17 305 9.7 14.5 0.00 0.00 0.00 80 1006.4
20260901005826 17 308 8.0 14.5 0.00 0.00 0.00 80 1006.5
20260901005325 18 317 9.7 14.5 0.00 0.00 0.00 80 1006.5
20260901004825 18 281 8.0 14.5 0.00 0.00 0.00 80 1006.5
20260901004326 18 295 9.7 14.5 0.00 0.00 0.00 79 1006.5
20260901003825 18 287 9.7 14.5 0.00 0.00 0.00 79 1006.5
20260901003325 18 287 11.3 14.5 0.00 0.00 0.00 79 1006.5
20260901002826 18 291 9.7 17.7 0.00 0.00 0.00 79 1006.5
20260901002325 18 277 11.3 17.7 0.00 0.00 0.00 79 1006.5
20260901001825 18 292 9.7 17.7 0.00 0.00 0.00 78 1006.4
20260901001326 18 301 9.7 17.7 0.00 0.00 0.00 78 1006.5
20260901000825 18 285 12.9 17.7 0.00 0.00 0.00 78 1006.5
20260901000325 18 285 11.3 17.7 0.00 0.00 0.00 78 1006.5
20260831235826 18 289 12.9 16.1 0.00 0.00 0.00 78 1006.5
20260831234825 19 292 9.7 16.1 0.00 0.00 0.00 78 1006.5
20260831233825 18 306 12.9 17.7 0.00 0.00 0.00 79 1006.4
20260831233325 18 287 11.3 17.7 0.00 0.00 0.00 79 1006.5
20260831232826 18 292 12.9 19.3 0.00 0.00 0.00 79 1006.4
20260831232325 18 317 12.9 19.3 0.00 0.00 0.00 78 1006.5
20260831231825 18 301 12.9 19.3 0.00 0.00 0.00 78 1006.5
20260831231326 18 302 14.5 17.7 0.00 0.00 0.00 78 1006.5
20260831230826 18 298 14.5 17.7 0.00 0.00 0.00 78 1006.5
20260831230325 18 288 14.5 17.7 0.00 0.00 0.00 78 1006.5
20260831225826 18 282 14.5 17.7 0.00 0.00 0.00 77 1006.4
20260831225325 19 301 12.9 16.1 0.00 0.00 0.00 77 1006.4
20260831224825 19 284 9.7 16.1 0.00 0.00 0.00 77 1006.3
20260831224326 19 292 11.3 16.1 0.00 0.00 0.00 77 1006.4
20260831223825 20 287 9.7 14.5 0.00 0.00 0.00 76 1006.3
20260831223325 20 298 9.7 14.5 0.00 0.00 0.00 76 1006.3
20260831222826 20 287 11.3 17.7 0.00 0.00 0.00 76 1006.3
20260831222325 20 268 11.3 17.7 0.00 0.00 0.00 76 1006.3
20260831221825 20 288 11.3 17.7 0.00 0.00 0.00 76 1006.3
20260831221326 20 285 11.3 17.7 0.00 0.00 0.00 75 1006.3
20260831220825 20 289 14.5 19.3 0.00 0.00 0.00 75 1006.3
20260831220325 20 291 11.3 19.3 0.00 0.00 0.00 75 1006.2
20260831215826 20 280 11.3 19.3 0.00 0.00 0.00 75 1006.2
20260831215325 20 288 12.9 19.3 0.00 0.00 0.00 75 1006.2
20260831214825 20 275 11.3 19.3 0.00 0.00 0.00 75 1006.2
20260831214326 20 281 12.9 19.3 0.00 0.00 0.00 75 1006.2
20260831213825 20 284 11.3 19.3 0.00 0.00 0.00 75 1006.2
20260831213325 20 288 9.7 16.1 0.00 0.00 0.00 75 1006.2
20260831212826 20 282 11.3 19.3 0.00 0.00 0.00 76 1006.3
20260831212325 20 309 11.3 19.3 0.00 0.00 0.00 75 1006.3
20260831211825 20 273 9.7 19.3 0.00 0.00 0.00 75 1006.4
20260831211326 20 301 8.0 16.1 0.00 0.00 0.00 76 1006.4
20260831210825 20 280 11.3 16.1 0.00 0.00 0.00 75 1006.3
20260831210326 20 296 11.3 14.5 0.00 0.00 0.00 75 1006.4
20260831205826 20 285 9.7 14.5 0.00 0.00 0.00 74 1006.4
20260831205325 20 299 6.4 16.1 0.00 0.00 0.00 75 1006.3
20260831204825 20 291 11.3 16.1 0.00 0.00 0.00 75 1006.3
20260831204326 20 287 9.7 16.1 0.00 0.00 0.00 74 1006.4
20260831203825 20 308 12.9 16.1 0.00 0.00 0.00 73 1006.4
20260831203325 21 281 11.3 16.1 0.00 0.00 0.00 73 1006.4
20260831202826 20 306 11.3 17.7 0.00 0.00 0.00 74 1006.5
20260831202325 20 303 12.9 17.7 0.00 0.00 0.00 74 1006.5
20260831201825 20 291 11.3 17.7 0.00 0.00 0.00 74 1006.6
20260831201326 20 322 11.3 14.5 0.00 0.00 0.00 74 1006.6
20260831200825 20 294 9.7 14.5 0.00 0.00 0.00 75 1006.6
20260831200325 20 317 9.7 11.3 0.00 0.00 0.00 75 1006.6
20260831195826 20 284 8.0 14.5 0.00 0.00 0.00 74 1006.5
20260831195325 20 333 9.7 14.5 0.00 0.00 0.00 75 1006.5
20260831194825 20 343 9.7 14.5 0.00 0.00 0.00 74 1006.6
20260831194326 20 331 9.7 12.9 0.00 0.00 0.00 74 1006.5
20260831193825 20 298 8.0 14.5 0.00 0.00 0.00 75 1006.6
20260831193325 20 309 9.7 14.5 0.00 0.00 0.00 74 1006.6
20260831192826 20 315 9.7 14.5 0.00 0.00 0.00 74 1006.6
20260831192325 20 298 12.9 16.1 0.00 0.00 0.00 75 1006.7
20260831191825 20 313 9.7 16.1 0.00 0.00 0.00 74 1006.6
20260831191326 20 277 9.7 16.1 0.00 0.00 0.00 74 1006.7
20260831190825 20 288 9.7 14.5 0.00 0.00 0.00 74 1006.8
20260831190325 20 298 9.7 14.5 0.00 0.00 0.00 74 1006.8
20260831185826 20 301 6.4 11.3 0.00 0.00 0.00 75 1007.0
20260831185325 20 287 8.0 11.3 0.00 0.00 0.00 75 1007.0
20260831184825 20 282 6.4 11.3 0.00 0.00 0.00 76 1007.0
20260831183825 19 337 4.8 11.3 0.00 0.00 0.00 74 1007.0
20260831183325 19 324 6.4 11.3 0.00 0.00 0.00 76 1006.9
20260831182826 19 288 6.4 11.3 0.00 0.00 0.00 77 1007.0
20260831182325 19 292 4.8 12.9 0.00 0.00 0.00 77 1007.0
20260831181825 19 320 6.4 12.9 0.00 0.00 0.00 77 1007.0
20260831181326 19 284 4.8 12.9 0.00 0.00 0.00 77 1007.1
20260831180825 18 292 9.7 9.7 0.00 0.00 0.00 79 1007.1
20260831180325 18 289 6.4 9.7 0.00 0.00 0.00 79 1007.0
20260831175826 18 291 6.4 11.3 0.00 0.00 0.00 80 1007.0
20260831175325 18 274 3.2 11.3 0.00 0.00 0.00 81 1007.0
20260831174825 18 275 4.8 11.3 0.00 0.00 0.00 81 1007.0
20260831174326 17 282 6.4 9.7 0.00 0.00 0.00 82 1007.0
20260831173825 17 288 4.8 9.7 0.00 0.00 0.00 82 1007.1
20260831173325 17 280 4.8 9.7 0.00 0.00 0.00 83 1007.1
20260831172826 17 284 6.4 9.7 0.00 0.00 0.00 82 1007.1
20260831172325 17 303 3.2 9.7 0.00 0.00 0.00 83 1007.1
20260831171825 17 280 3.2 9.7 0.00 0.00 0.00 84 1007.1
20260831170825 16 320 4.8 8.0 0.00 0.00 0.00 85 1007.1
20260831170325 16 299 3.2 4.8 0.00 0.00 0.00 85 1007.1
20260831165826 16 298 3.2 6.4 0.00 0.00 0.00 86 1007.1
20260831165325 16 312 3.2 6.4 0.00 0.00 0.00 86 1007.1
20260831164825 16 301 4.8 6.4 0.00 0.00 0.00 86 1007.1
20260831163825 16 275 3.2 8.0 0.00 0.00 0.00 87 1007.2
20260831163325 16 296 3.2 8.0 0.00 0.00 0.00 87 1007.2
20260831162826 16 289 4.8 8.0 0.00 0.00 0.00 87 1007.3
20260831162325 16 319 1.6 6.4 0.00 0.00 0.00 87 1007.4
20260831161825 15 317 3.2 6.4 0.00 0.00 0.00 87 1007.4
20260831161326 15 0 4.8 4.8 0.00 0.00 0.00 88 1007.4
20260831160825 15 0 0.0 1.6 0.00 0.00 0.00 88 1007.4
20260831160325 14 285 0.0 1.6 0.00 0.00 0.00 88 1007.4
20260831155826 13 295 0.0 1.6 0.00 0.00 0.00 87 1007.4
20260831155325 13 0 0.0 0.0 0.00 0.00 0.00 87 1007.5
20260831154825 13 0 0.0 0.0 0.00 0.00 0.00 87 1007.5
20260831154326 13 0 0.0 0.0 0.00 0.00 0.00 87 1007.6
20260831153825 13 0 0.0 0.0 0.00 0.00 0.00 87 1007.7
20260831153326 13 0 0.0 0.0 0.00 0.00 0.00 87 1007.6
20260831152826 13 0 0.0 0.0 0.00 0.00 0.00 87 1007.6
20260831152325 13 0 0.0 0.0 0.00 0.00 0.00 87 1007.6
20260831151825 13 0 0.0 0.0 0.00 0.00 0.00 87 1007.7
20260831151326 12 0 0.0 0.0 0.00 0.00 0.00 87 1007.7
20260831150825 12 0 0.0 0.0 0.00 0.00 0.00 87 1007.7
20260831150325 12 0 0.0 0.0 0.00 0.00 0.00 86 1007.7
20260831145826 12 0 0.0 0.0 0.00 0.00 0.00 86 1007.7
20260831145325 12 0 0.0 0.0 0.00 0.00 0.00 86 1007.6
20260831144825 12 0 0.0 0.0 0.00 0.00 0.00 86 1007.6
20260831144326 12 0 0.0 0.0 0.00 0.00 0.00 86 1007.6
20260831143825 12 0 0.0 0.0 0.00 0.00 0.00 86 1007.6
20260831143325 12 0 0.0 4.8 0.00 0.00 0.00 86 1007.5
20260831142826 12 0 0.0 4.8 0.00 0.00 0.00 86 1007.4
20260831142326 12 95 0.0 4.8 0.00 0.00 0.00 86 1007.4
20260831141825 12 96 3.2 3.2 0.00 0.00 0.00 86 1007.4
20260831141326 12 105 1.6 8.0 0.00 0.00 0.00 86 1007.3
20260831140825 12 103 1.6 8.0 0.00 0.00 0.00 86 1007.3
20260831140325 12 106 6.4 8.0 0.00 0.00 0.00 86 1007.3
20260831135826 12 99 6.4 8.0 0.00 0.00 0.00 86 1007.2
20260831135325 12 100 6.4 8.0 0.00 0.00 0.00 86 1007.2
20260831134825 12 103 6.4 6.4 0.00 0.00 0.00 86 1007.2
20260831134326 12 109 4.8 6.4 0.00 0.00 0.00 86 1007.4
20260831133825 12 91 0.0 6.4 0.00 0.00 0.00 85 1007.4